Date String (YYYY-MM-DD hh:mm:ss) UTC,Instrument flags,Ambient pressure (hPa),Sample flow (lpm),Bypass flow (lpm),Sample temperature (°C),Ambient temperature (°C),ASC tube jacket temperature (°C),LED temperature (°C),Box temperature (°C),Sample RH (%),Span deviation,Mass concentration (μg/m³),Mass concentration (μg/m³),Mass concentration (μg/m³)
DateTimeUTC,F1_M11,P_M11,Q1_M11,Q2_M11,T1_M11,T2_M11,T3_M11,T4_M11,T5_M11,U1_M11,ZSPAN_M11,X0_M11,X2_M11,X1_M11
2023-01-04 14:00:00,,0820.1,5.00,0.00,22.2,20.6,00.0,31.2,23.9,07.2,0000.0,0010.83,0008.15,0008.00
2023-01-04 14:01:00,,0820.2,5.00,0.00,22.2,20.3,00.0,31.2,23.7,06.9,0000.0,0010.50,0007.93,0007.81
2023-01-04 14:02:00,,0820.2,5.00,0.00,22.1,20.4,00.0,31.1,23.7,06.9,0000.0,0009.97,0007.46,0007.36
2023-01-04 14:03:00,,0820.0,5.01,0.00,22.2,21.5,00.0,31.0,24.0,07.2,0000.0,0009.79,0007.30,0007.20
2023-01-04 14:04:00,,0820.0,5.00,0.00,22.3,22.5,00.0,31.0,24.2,07.1,0000.0,0009.49,0007.04,0006.95
2023-01-04 14:05:00,,0820.1,4.99,0.00,22.4,22.5,00.0,31.1,24.3,06.9,0000.0,0008.74,0006.33,0006.25
2023-01-04 14:06:00,,0820.0,4.99,0.00,22.4,21.8,00.0,31.1,24.2,06.7,0000.0,0007.56,0005.28,0005.21
2023-01-04 14:07:00,,0820.0,5.00,0.00,22.3,21.1,00.0,31.1,23.9,06.8,0000.0,0006.48,0004.63,0004.54
2023-01-04 14:08:00,,0820.1,5.00,0.00,22.2,20.5,00.0,31.1,23.6,06.8,0000.0,0006.00,0004.26,0004.18
2023-01-04 14:09:00,,0820.2,5.01,0.00,22.1,20.0,00.0,31.1,23.4,06.8,0000.0,0006.01,0003.99,0003.91
2023-01-04 14:10:00,,0820.1,5.00,0.00,22.0,19.6,00.0,31.1,23.3,06.9,0000.0,0005.80,0003.89,0003.81
2023-01-04 14:11:00,,0820.2,5.00,0.00,21.9,19.4,00.0,31.0,23.2,06.7,0000.0,0005.26,0003.61,0003.54
2023-01-04 14:12:00,,0819.9,5.02,0.00,21.8,19.5,00.0,31.0,23.2,06.8,0000.0,0004.69,0003.32,0003.23
2023-01-04 14:13:00,,0819.9,5.01,0.00,21.8,20.4,00.0,30.9,23.4,06.6,0000.0,0004.47,0003.21,0003.09
2023-01-04 14:14:00,,0820.2,5.00,0.00,21.9,21.7,00.0,30.9,23.8,06.5,0000.0,0003.90,0002.75,0002.56
2023-01-04 14:15:00,,0820.2,5.01,0.00,22.1,22.7,00.0,30.9,24.0,06.6,0000.0,0003.22,0002.13,0001.97
2023-01-04 14:16:00,,0820.1,4.99,0.00,22.1,22.2,00.0,30.9,24.0,06.8,0000.0,0002.84,0001.70,0001.50
2023-01-04 14:17:00,,0820.1,4.99,0.00,22.1,21.6,00.0,31.0,23.8,06.6,0000.0,0002.72,0001.55,0001.33
2023-01-04 14:18:00,,0820.2,5.01,0.00,22.1,21.1,00.0,31.0,23.7,06.6,0000.0,0002.69,0001.51,0001.29
2023-01-04 14:19:00,,0820.3,5.00,0.00,22.0,20.5,00.0,31.0,23.5,06.7,0000.0,0002.52,0001.46,0001.24
2023-01-04 14:20:00,,0820.2,4.99,0.00,21.9,20.1,00.0,30.9,23.3,06.8,0000.0,0001.82,0001.42,0001.21
2023-01-04 14:21:00,,0820.2,5.02,0.00,21.8,19.8,00.0,30.9,23.2,06.9,0000.0,0001.63,0001.24,0001.04
2023-01-04 14:22:00,,0820.2,5.02,0.00,21.7,19.4,00.0,30.9,23.1,06.9,0000.0,0001.68,0001.23,0001.01
2023-01-04 14:23:00,,0820.2,5.00,0.00,21.7,19.6,00.0,30.8,23.1,06.8,0000.0,0001.71,0001.23,0001.00
2023-01-04 14:24:00,,0820.1,5.00,0.00,21.7,20.8,00.0,30.7,23.4,06.9,0000.0,0001.75,0001.23,0001.00
2023-01-04 14:25:00,,0820.2,5.00,0.00,21.9,22.1,00.0,30.7,23.8,06.8,0000.0,0001.78,0001.23,0001.00
2023-01-04 14:26:00,,0820.2,5.00,0.00,22.0,22.6,00.0,30.7,24.0,06.6,0000.0,0001.81,0001.22,0000.99
2023-01-04 14:27:00,,0820.0,4.99,0.00,22.0,22.0,00.0,30.8,23.9,06.8,0000.0,0001.74,0001.18,0000.97
2023-01-04 14:28:00,,0820.2,5.02,0.00,22.0,21.4,00.0,30.8,23.7,06.8,0000.0,0001.63,0001.14,0000.96
2023-01-04 14:29:00,,0820.2,5.00,0.00,22.0,20.9,00.0,30.8,23.6,06.8,0000.0,0001.64,0001.13,0000.95
2023-01-04 14:30:00,,0820.2,4.99,0.00,21.9,20.7,00.0,30.8,23.5,06.8,0000.0,0001.60,0001.11,0000.93
2023-01-04 14:31:00,,0820.2,4.99,0.00,21.9,20.5,00.0,30.8,23.4,06.8,0000.0,0001.68,0001.11,0000.93
2023-01-04 14:32:00,,0820.3,5.01,0.00,21.8,20.4,00.0,30.8,23.3,06.8,0000.0,0001.86,0001.11,0000.93
2023-01-04 14:33:00,,0820.3,5.01,0.00,21.8,20.3,00.0,30.8,23.3,07.0,0000.0,0001.85,0001.11,0000.94
2023-01-04 14:34:00,,0820.2,5.00,0.00,21.8,20.6,00.0,30.7,23.3,06.8,0000.0,0001.88,0001.12,0000.94
2023-01-04 14:35:00,,0820.3,5.00,0.00,21.9,21.6,00.0,30.7,23.6,06.9,0000.0,0001.83,0001.10,0000.93
2023-01-04 14:36:00,,0820.2,5.00,0.00,22.0,22.6,00.0,30.7,23.9,06.9,0000.0,0001.85,0001.10,0000.92
2023-01-04 14:37:00,,0820.3,4.98,0.00,22.1,22.5,00.0,30.8,24.0,06.8,0000.0,0001.99,0001.11,0000.92
2023-01-04 14:38:00,,0820.3,5.01,0.00,22.1,21.9,00.0,30.8,23.9,06.8,0000.0,0002.09,0001.10,0000.91
2023-01-04 14:39:00,,0820.5,5.00,0.00,22.1,21.4,00.0,30.8,23.8,06.9,0000.0,0002.28,0001.11,0000.92
2023-01-04 14:40:00,,0820.5,4.99,0.00,22.0,21.0,00.0,30.9,23.7,07.1,0000.0,0002.62,0001.24,0001.02
2023-01-04 14:41:00,,0820.6,5.00,0.00,22.0,20.8,00.0,30.9,23.6,07.3,0000.0,0003.91,0001.97,0001.70
2023-01-04 14:42:00,,0820.6,5.02,0.00,22.0,20.6,00.0,30.9,23.6,07.2,0000.0,0004.49,0002.50,0002.24
2023-01-04 14:43:00,,0820.6,5.01,0.00,22.0,20.5,00.0,30.9,23.5,07.4,0000.0,0004.98,0003.10,0002.86
2023-01-04 14:44:00,,0820.5,5.00,0.00,21.9,20.4,00.0,30.8,23.5,07.5,0000.0,0006.21,0003.73,0003.58
2023-01-04 14:45:00,,0820.6,5.00,0.00,21.9,20.3,00.0,30.8,23.5,07.4,0000.0,0007.38,0004.19,0004.07
2023-01-04 14:46:00,,0820.6,5.01,0.00,21.9,20.9,00.0,30.8,23.6,07.1,0000.0,0008.74,0004.48,0004.33
2023-01-04 14:47:00,,0820.6,4.99,0.00,22.1,22.1,00.0,30.8,23.9,07.0,0000.0,0009.70,0004.67,0004.52
2023-01-04 14:48:00,,0820.6,4.99,0.00,22.2,23.1,00.0,30.8,24.2,07.1,0000.0,0010.21,0004.98,0004.85
2023-01-04 14:49:00,,0820.7,4.98,0.00,22.3,22.9,00.0,30.9,24.3,07.4,0000.0,0010.77,0005.56,0005.41
2023-01-04 14:50:00,,0820.7,5.02,0.00,22.3,22.4,00.0,30.9,24.2,07.1,0000.0,0011.14,0006.03,0005.89
2023-01-04 14:51:00,,0820.8,4.99,0.00,22.3,21.9,00.0,31.0,24.1,07.0,0000.0,0011.32,0006.26,0006.13
2023-01-04 14:52:00,,0820.8,4.99,0.00,22.3,21.6,00.0,31.0,24.0,07.3,0000.0,0011.26,0006.45,0006.33
2023-01-04 14:53:00,,0820.7,5.00,0.00,22.3,21.3,00.0,31.0,24.0,07.3,0000.0,0012.07,0006.67,0006.56
2023-01-04 14:54:00,,0820.7,5.01,0.00,22.2,21.1,00.0,31.0,24.0,07.7,0000.0,0012.54,0007.10,0006.96
2023-01-04 14:55:00,,0820.7,5.00,0.00,22.2,21.0,00.0,31.0,23.9,08.2,0000.0,0013.47,0008.03,0007.89
2023-01-04 14:56:00,,0820.7,5.00,0.00,22.2,20.8,00.0,31.0,23.8,08.3,0000.0,0014.16,0008.92,0008.80
2023-01-04 14:57:00,,0820.8,5.00,0.00,22.2,20.6,00.0,31.0,23.8,08.2,0000.0,0014.03,0009.74,0009.60
2023-01-04 14:58:00,,0820.9,5.00,0.00,22.1,20.4,00.0,31.0,23.7,08.5,0000.0,0014.66,0011.00,0010.84
2023-01-04 14:59:00,,0820.8,5.00,0.00,22.1,20.3,00.0,31.0,23.6,08.7,-000.1,0015.88,0012.37,0012.19
